This demonstration page uses our WeatherBlox Daily Observations layout. Learn more.

38.88101, -77.10428

Hourly Observations for March 17, 2018

Temp ( °F °C ) Dew Point ( °F °C ) Humidity (%) Winds ( mph kmh ) Pressure ( in mb ) Visibility ( mi km ) Precip ( " mm )
12:52 am 00:52 Partly Cloudy 38 3.3 13 -10.6 36 36 WNW 3 6 30.06 1018 10 16.0934 0 0
1:52 am 01:52 Partly Cloudy 35 1.7 18 -7.8 50 50 SW 3 6 30.06 1018 10 16.0934 0 0
2:52 am 02:52 Partly Cloudy 35 1.7 13 -10.6 40 40 Calm 30.06 1018 10 16.0934 0 0
3:52 am 03:52 Partly Cloudy 34 1.1 14 -10 44 44 N 5 7 30.05 1018 10 16.0934 0 0
4:52 am 04:52 Clear 34 1.1 16 -8.9 48 48 N 3 6 30.02 1017 10 16.0934 0 0
5:52 am 05:52 Mostly Cloudy 36 2.2 15 -9.4 42 42 NNE 3 6 30.03 1017 10 16.0934 0 0
6:52 am 06:52 Mostly Cloudy 34 1.1 19 -7.2 54 54 N 3 6 30.02 1017 10 16.0934 0 0
7:52 am 07:52 Mostly Cloudy 35 1.7 14 -10 42 42 Calm 30.03 1017 10 16.0934 0 0
8:52 am 08:52 Mostly Cloudy 36 2.2 18 -7.8 48 48 SW 9 15 30.05 1018 10 16.0934 0 0
9:52 am 09:52 Mostly Cloudy 41 5 16 -8.9 36 36 SSW 8 13 30.03 1017 10 16.0934 0 0
10:52 am 10:52 Mostly Cloudy 41 5 21 -6.1 45 45 S 6 9 30 1016 10 16.0934 0 0
11:52 am 11:52 Cloudy 42 5.6 17 -8.3 36 36 S 6 9 29.97 1015 10 16.0934 0 0
12:52 pm 12:52 Cloudy 44 6.7 22 -5.6 41 41 S 8 13 29.94 1014 10 16.0934 0 0
1:52 pm 13:52 Cloudy 45 7.2 22 -5.6 40 40 SW 9 15 29.9 1012 10 16.0934 0 0
2:52 pm 14:52 Cloudy 44 6.7 29 -1.7 55 55 W 12 19 29.88 1012 10 16.0934 0 0.0254
3:52 pm 15:52 Cloudy 44 6.7 30 -1.1 58 58 WSW 7 11 29.84 1011 10 16.0934 0 0
4:52 pm 16:52 Cloudy with Light Rain 44 6.7 30 -1.1 58 58 WNW 7 11 29.85 1011 10 16.0934 0 0.0254
5:52 pm 17:52 Mostly Cloudy with Light Rain 44 6.7 29 -1.7 55 55 WNW 3 6 29.84 1011 10 16.0934 0 0.0254
6:52 pm 18:52 Sunny 43 6.1 31 -0.6 63 63 W 9 15 29.83 1010 10 16.0934 0 0.0254
7:52 pm 19:52 Mostly Cloudy 43 6.1 31 -0.6 63 63 NW 8 13 29.83 1010 10 16.0934 0 0
8:52 pm 20:52 Mostly Clear 42 5.6 31 -0.6 65 65 VRB 5 7 29.84 1010 10 16.0934 0 0
9:52 pm 21:52 Mostly Clear 38 3.3 30 -1.1 73 73 NNW 8 13 29.84 1010 10 16.0934 0 0
10:52 pm 22:52 Mostly Clear 40 4.4 30 -1.1 68 68 Calm 29.85 1011 10 16.0934 0 0
11:52 pm 23:52 Partly Cloudy 37 2.8 30 -1.1 76 76 W 6 9 29.88 1012 10 16.0934 0 0

Powered by AerisWeather